HST
1 20580U 90037B   24129.65976583  .00007447  00000-0  35564-3 0  9999
2 20580  28.4687 249.8567 0002162 337.8803  22.1696 15.17146625671026
ISS (ZARYA)
1 25544U 98067A   24130.36689744  .00016024  00000-0  27777-3 0  9993
2 25544  51.6381 147.8590 0003466 150.4670 338.5502 15.51043222452521
CXO
1 25867U 99040B   24133.48260059  .00000624  00000-0  00000+0 0  9998
2 25867  40.3930 157.1735 8928908 294.0177 359.5589  0.37808239 25586